You are on page 1of 18

Clasificación

Veteranos M
Pto. Dorsal Nombre Apellidos Club Tiempo P. Gen.

1 8 AIMAD BOUZIANE 0:29:24 5

2 771 RICARDO ORTIZ ASTORQUIA 0:29:58 10

3 5 FCO JAVIER FONTANEDA PEREZ 0:30:39 11

4 3008 IGOR GARCIA ZARRAGA 0:30:57 12

5 377 IMANOL MARROKIN BAUTISTA 0:31:01 13

6 896 JOSEBA PLAGARO RODRIGUEZ BASQUE TRIBE 0:31:05 14

7 663 EDU MARIN MARTIN ALIMCO RUNNINGFIZ 0:31:06 15

8 3004 AINGERU BARBIER CALDERON 0:31:29 18

9 512 JOSE LUIS HERRERA SANCHEZ INDEPENDIENTE 0:32:01 20

10 459 ROBERTO GARAY MIER MUNARRI 0:32:04 21

11 654 JORGE DELGADO 0:32:29 22

12 185 JOSU INTXAUSPE DE MARIA C.A.LEIOA 0:32:34 23

13 662 JORGE HERNANDO MARTINEZ U.D.MUÑATONES 0:32:52 25

14 708 EGOITZ BARAIA VALENCIA 0:33:02 26

15 729 JAVIER CANAL CARRERA 0:33:12 29

16 870 EDUARDO HERNANDO MARTINEZ U.D.MUÑATONES 0:33:13 30

17 3051 DORKAITZ BASARTE GARCIA 0:33:27 32

18 916 GAIZKA PORTILLO BENITO INDEPENDIENTE 0:33:34 34

19 740 ASIER GEZURAGA ELGEZABAL 0:33:51 37

20 460 JOSE ANGEL CANTERO GARCIA C.A. LAUDIO 0:33:56 38

21 867 ALBERTO BARRIO CAGIGAL ANB FANOX 0:34:11 42

22 953 ALBERTO TALLEDO PINEDO ATLETISMO LAUDIO 0:34:14 44

23 966 ALVARO SANDINO BIDEZABAL 0:34:19 45

24 934 IKER PLAGARO RODRIGUEZ BASQUE TRIBE 0:34:28 47

25 486 KOLDOBIKA BAROJA FERNANDEZ DURANGO KIROL TALDEA 0:34:29 49

26 265 JOSE MIGUEL VALLE GARCIA ARTUNDUAGA A.T. 0:34:32 50

27 347 JAVIER GARCES BLANCO 0:34:35 52

28 515 ANDONI FERNANDEZ DE LA PEÑA TAJES INDEPENDIENTE 0:34:44 54

29 651 KEPA URKIXO IBARRETXE 0:34:46 56

30 674 RAMON PEREZ CANTERO 0:34:52 58

31 3117 MIRIAN SUAZO DOÑA 0:34:55 60

32 205 JOSE JUAN ORTEGA CHECA 0:35:03 61

33 557 ALAIN GONZALEZ BUSTINZA 0:35:04 62

34 918 IÑAKI GARCIA DE LA CRUZ INDEPENDIENTE 0:35:05 63

Cronometraje Chip ‐ info@sportsolution.es www.TuResultado.es
Página 1 de 18
Clasificación
Veteranos M
Pto. Dorsal Nombre Apellidos Club Tiempo P. Gen.

35 745 JORGE GONZALEZ GONZALEZ  0:35:06 64

36 130 JAVIER AZARLOZA GONZALEZ 0:35:09 66

37 242 LAURENT WILLIAMS 0:35:13 68

38 162 GORKA VITERI VALLE SD KORRIKAZALEAK 0:35:16 70

39 465 GORKA DE LA PUERTA RUBIO 0:35:16 71

40 3018 LUIS PLASENCIA ALONSO 0:35:17 72

41 861 FERNANDO ALLENDE GUEZURAGA HOY SUAVE 0:35:17 73

42 457 ROKE RUBIO MENDEZ INDEPENDIENTE 0:35:17 74

43 279 ASIER OLEAGA RAPP 0:35:18 75

44 273 EGOITZ PIÑEIRO BILBAO BESTE BIRA 0:35:18 76

45 872 SERGIO SAN JOSE VAY 0:35:22 80

46 570 INIGO CALVO GARCIA 0:35:27 81

47 732 ADOLFO ALVAREZ DIAZ 0:35:30 82

48 1039 ANGEL ÑAMIÑA 0:35:31 83

49 599 JUAN CARLOS SANCHEZ IBANEZ 0:35:37 84

50 492 JON GOIKOETXEA BILBAO 0:35:39 85

51 1018 GORKA GORROÑO DIAZ LABEGANE 0:35:44 86

52 855 IGOR PEREZ DE ANUZITA ANDRES 0:35:46 87

53 156 FELIX GALLEGO CAMIÑA 0:35:49 88

54 158 DAVID ORTIZ SESTAO TRIATLOI TALDEA 0:35:54 89

55 738 JULIO SAEZ RAMOS 0:35:59 91

56 3087 JAVIER GONZALEZ LACABEX 0:36:05 92

57 744 FCO JAVIER FERNANDEZ FERNANDEZ 0:36:08 93

58 232 MARTIN SEVILLA RODRIGUEZ 0:36:12 95

59 495 ION PEREZ NUÑEZ 0:36:23 96

60 943 EDUARDO SOLA BEPERET 0:36:23 97

61 379 HARITZ SOLUPE GARCIA 0:36:25 98

62 3163 ENEKO VAN HORENBEKE 0:36:28 101

63 656 ASIER ASTIGARRAGA OLAIZOLA 0:36:28 103

64 883 GUSTAVO ARANA MUNARRI 0:36:29 104

65 84 OSCAR PEREZ DE EULATE 0:36:40 106

66 124 JOSEAN IZAGUIRRE ORTUETA 0:36:41 107

67 585 RAUL OLANO BARTUREN 0:36:42 108

68 895 IVAN VALGAÑON IÑIGUEZ MESA TEAM 0:36:45 109

Cronometraje Chip ‐ info@sportsolution.es www.TuResultado.es
Página 2 de 18
Clasificación
Veteranos M
Pto. Dorsal Nombre Apellidos Club Tiempo P. Gen.

69 75 JESUS ALBERTO GOMEZ ASENSIO 0:36:46 111

70 778 ARKAITZ IGLESIAS ZAMORA 0:36:52 112

71 604 ANTONIO DELGADO FALAGAN 0:36:57 115

72 638 IKER DE LA CALLE ALISAR 0:37:03 117

73 3005 DAVID BURGOA PERDON 0:37:09 119

74 244 JESUS BEAMONTE AJURIA MUNARRI 0:37:10 121

75 621 AITOR DIEZ TEMPRANO 0:37:13 123

76 734 JAVIER RUIZ CORREA 0:37:13 124

77 230 EUSEBIO DE LA QUINTANA IRIONDO 0:37:17 126

78 466 RAUL CAMPOS PUENTE 0:37:17 127

79 783 IÑAKI SEGUIN ZAMALLOA INDEPENDIENTE 0:37:18 128

80 798 GORKA CAMINERO HIRUBI 0:37:21 129

81 949 PEDRO GARCIA MATAMOROS SESTAO TRIATLON TALDEA 0:37:29 130

82 607 VICTOR LINARES NAVARRO 0:37:33 131

83 312 FRAN  LEARRETA FERNANDEZ 0:37:40 134

84 272 IÑAKI URRESTI SERRA 0:37:40 135

85 48 EDUARDO AVELLANEDA SANCHEZ 0:37:41 136

86 206 OSCAR MARTINEZ PINTO HIRUBI SOPELA 0:37:45 137

87 378 ROBERTO CALLEJON GUTIERREZ 0:37:46 138

88 346 DAVID NAVASCUES GARCIA 0:37:46 139

89 820 IÑAKI PICAZA 0:37:51 140

90 349 ANGEL SAGASTI UNIBASO 0:37:53 141

91 109 KEPA MIRENA TORRE GARAIKOETXEA 0:38:06 143

92 3067 PEDRO ZUMARRAGA GOROSTIZA 0:38:06 144

93 705 RAFAEL DIEZ MARTINEZ 0:38:07 145

94 86 INAKI DIEZ GARCIA 0:38:07 146

95 902 MIGUEL ALVAREZ PERES CLUB DEPORTIVO BILBAO 0:38:10 147

96 794 IBON ZARRAONANDIA AYO 0:38:11 150

97 961 JOSE FELIX RODRIGUEZ RUA 0:38:16 153

98 668 JOSE ANTONIO MARTIN BOLAÑOS EUSKALDUNON TXOKOA 0:38:17 155

99 39 EDUARDO IBANEZ ARRESE 0:38:22 158

100 439 JOSEBA ARRINDA LEON 0:38:32 159

101 433 INAKI RAMIREZ DE OLANO BENGOETXEA 0:38:34 160

Cronometraje Chip ‐ info@sportsolution.es www.TuResultado.es
Página 3 de 18
Clasificación
Veteranos M
Pto. Dorsal Nombre Apellidos Club Tiempo P. Gen.

102 386 ISRAEL MARTINEZ BECERRIL 0:38:36 161

103 361 MICHEL MARTINEZ ALMANZA 0:38:36 162

104 782 ALEX GARCIA TEJEDOR 0:38:38 163

105 529 KEPA BARRUETABENA ETXEBARRIA 0:38:39 164

106 714 ERLANTZ ALONSO ETXEBARRIA 0:38:42 167

107 591 JUAN JOSE OTAOLA ALDAY 0:38:43 170

108 67 INIGO LODOS CALVO 0:38:47 172

109 159 ARITZA SEGUROLA AZKARATE 0:38:48 173

110 624 JAVIER GONZALEZ IGLESIAS 0:38:54 174

111 636 JUANJO ORTIZ DE MENDIBIL MARCO 0:38:55 176

112 444 JUAN MANUEL LOPEZ ROMAN 0:38:58 177

113 12 RAFAEL BARRUTIA RUIZ 0:38:59 178

114 18 INAKI BILBAO LLANOS 0:39:02 179

115 811 JAVIER MAIZ EZA TURTZIOS 0:39:08 180

116 311 ALVARO GUTIERREZ IBANEZ 0:39:17 184

117 169 JOSE MASEDA PENA 0:39:18 185

118 781 JON KEPA BARRONDO ETXEBARRIA AURRERANTZ SESTAO 0:39:25 186

119 644 MIKEL ANDONI ETXENAGUSIA MARCOS 0:39:25 187

120 923 SERGIO SANTAMARIA GAONA 0:39:28 190

121 125 ALVARO ANTON RICA INDEPENDIENTE 0:39:32 192

122 362 PATXI INTXAURTIETA ORTUZAR 0:39:32 193

123 849 TXEMA MANRIQUE IGUAL 0:39:32 194

124 735 FRANCISCO JAVIER SAENZ OLIVER 0:39:36 195

125 733 ANDONI BASTERRETXEA GONZALEZ 0:39:40 197

126 504 AGUSTIN AIARTZAGUENA SARRIUGARTE 0:39:43 198

127 424 ALEJANDRO OLEAGORDIA AYESTA 0:39:53 200

128 442 JONATHAN VEGAS ORELLANA 0:39:56 202

129 213 TXEMA BLANCO MARTIN 0:39:57 203

130 3159 JUAN GABRIEL RODRIGUEZ 0:39:58 204

131 235 JAVIER PEREZ DIEZ 0:40:00 205

132 633 JOSE MANUEL CUBILLO IBANEZ 0:40:04 206

133 107 GOTZON VITERI VITORICA 0:40:05 207

134 756 CARLOS NEGRO RODRIGUEZ 0:40:07 209

135 1036 GORKA ALVAREZ VARELA 0:40:07 210

Cronometraje Chip ‐ info@sportsolution.es www.TuResultado.es
Página 4 de 18
Clasificación
Veteranos M
Pto. Dorsal Nombre Apellidos Club Tiempo P. Gen.

136 556 JOSEBA GANDARIASBEITIA ACHA 0:40:10 212

137 622 JULIAN CALLEJA LAS HERAS 0:40:12 213

138 143 JON ANDER GOYENECHEA BATIS 0:40:12 214

139 715 JORGE HEREDIA 0:40:20 217

140 768 ROBERTO PINTOR MELLA 0:40:20 218

141 3161 JOSE RAMON SANCHEZ 0:40:22 219

142 1066 RAMON GARCIA GRIJELMO 0:40:26 220

143 72 ADRIAN MARTINEZ LOPEZ 0:40:29 221

144 3076 IGOR VILARCHAO RUIZ 0:40:30 222

145 3070 DAVID DOCAL FERNANDEZ 0:40:30 223

146 3069 DAVID DEL CORRO TRANCHE 0:40:30 224

147 337 GAIZKA FERNANDEZ MARTIN 0:40:31 225

148 387 FEDERICO ENOELMANN ARRASATE 0:40:34 227

149 1015 INIGO LANDALUZE 0:40:35 228

150 49 IGOR ARRIZABALAGA ARRATE 0:40:36 229

151 1042 KARLOS MORADILLO RECIO A.GALDAKAO 0:40:38 230

152 859 JOSE JESUS LARREINA CORDOBA 0:40:40 231

153 274 PEDRO IRIBAR MANZARRAGA 0:40:44 233

154 3084 ELEDER CARRASCO IBERGARAI 0:40:44 234

155 333 DAVID LAZARO OYARZABAL 0:40:44 235

156 74 ARKAITZ ALLETXE AGIRRE 0:40:45 236

157 40 IKER LORONO UCEDA 0:40:48 237

158 946 MIKEL GONDRA ZARRAGA CICLOS GORLIZ C.D. 0:40:48 239

159 132 ANDER BENGOA OTAOLEA CLUB VASCO DE CAMPING ELKARTEA 0:40:49 240

160 289 PEDRO AMO GONZALEZ 0:40:50 242

161 476 IGOR MORENO JAUREGI BILBAOTRI 0:40:51 243

162 936 SABINO TRUCIOS DIAZ 0:40:51 244

163 343 JOSE ANGEL BOLOS SANTANA 0:40:52 245

164 717 JUAN PABLO ZABALLOS ARROYO 0:40:57 248

165 66 CESAR DE FRANCISCO RIOS 0:40:57 249

166 653 MIKEL ACEBES LESAKA 0:41:00 251

167 577 JUANTXU ABUIN ORDONEZ 0:41:04 252

168 769 JOSE RAMON LOPEZ TEJEDOR 0:41:06 254

169 535 JON PERNIA GORMLET 0:41:08 256

Cronometraje Chip ‐ info@sportsolution.es www.TuResultado.es
Página 5 de 18
Clasificación
Veteranos M
Pto. Dorsal Nombre Apellidos Club Tiempo P. Gen.

170 3079 GONZALO GOROSTIZA ARRILLAGA 0:41:10 257

171 696 GAIZKA HERRERO LARREA AZPIGORRI 0:41:11 258

172 297 OSCAR MUGICA MAYORDOMO 0:41:12 260

173 538 IVAN TRABA BORRAZAS 0:41:14 262

174 773 MIGUEL ANGEL RODRIGUEZ PASCUAL 0:41:19 264

175 3052 RICARDO DE LA RUA 0:41:23 266

176 598 INAKI GOMEZ SANCHEZ 0:41:24 267

177 411 ANGEL PEREÑA SANCHEZ 0:41:24 268

178 525 JUAN MIGUEL RAMOS GUERRA 0:41:31 271

179 774 JOSEBA PLAZA MORALES 0:41:35 273

180 184 GARIKOITZ UGARTE LERMA GANGUREN MT 0:41:35 274

181 814 ERIK SERNA 0:41:38 275

182 736 ENDIKA COTANO SANTACOLOMA 0:41:40 278

183 739 JUAN MANUEL FERNANDEZ ABONJO 0:41:40 280

184 568 JOSEBA ANDONI VALLE RICO 0:41:42 282

185 701 JUAN PEDRO PITA BLANCO 0:41:47 284

186 3065 JON ANDER URIARTE BASTERRETXEA 0:41:51 285

187 503 GABRIEL URRUTXI ASPERILLA 0:41:52 286

188 584 ALFONSO DEL PONTILLO ELORDI 0:41:55 287

189 45 JOSE ANGEL TRES BOLEAS 0:41:58 289

190 474 EMILIO RAMOS RODRIGUEZ 0:41:59 290

191 81 JOSE RAMON GARCIA SANCHEZ 0:42:00 291

192 718 PEDRO GARCIA ORTEGA 0:42:01 292

193 767 JOSE LUIS MORENO OROZKO 0:42:03 293

194 618 JORGE JAVIER PEREZ PEREZ 0:42:04 294

195 760 FRANCISCO SANCHEZ FUENTE 0:42:06 295

196 283 JOSE MARI REY CANIVE COBIDEA 0:42:08 296

197 816 IÑIGO RODRIGUEZ ARZA C.A. LAUDIO 0:42:09 297

198 412 JUAN RAMON INARRITU IBARRECHE 0:42:09 298

199 59 DAVID JAVIER DEL OLMO CAMPO 0:42:10 299

200 275 TXUTXI MORO DIAZ 0:42:13 300

201 669 TXEMA LEOZ IBARRA 0:42:14 301

202 603 INAKI MENDIZABAL MADINA 0:42:17 302

203 900 JUAN FELIX SOBRINO MUÑOZ INDEPENDIENTE 0:42:18 303

Cronometraje Chip ‐ info@sportsolution.es www.TuResultado.es
Página 6 de 18
Clasificación
Veteranos M
Pto. Dorsal Nombre Apellidos Club Tiempo P. Gen.

204 766 JUAN CARLOS VARELA LOPEZ 0:42:20 305

205 869 MIGUEL FERNANDEZ HERNANDEZ BUSTURIKO ATLETISMO TALDEA 0:42:32 311

206 882 ARKAITZ ETXEBARRIA CASTAÑOS BUSTURIKO ATLETISMO TALDEA 0:42:32 312

207 3039 JAIME MARIA CROVETTO POSSE 0:42:38 314

208 1013 ALEJANDRO ARANGUREN CAVIEDES ATLETICO COLINDRES 0:42:39 315

209 494 JESUS MARIA OJEDA SILES TTELEFONICA ARTXANDA 0:42:40 316

210 121 JAVI BILBAO URBANO 0:42:40 317

211 330 MARKEL YARZA GONZALEZ 0:42:41 319

212 256 BORJA NIÑO VERGARA KAN DE VICO 0:42:42 321

213 36 INAKI BUTRON GARCIA 0:42:43 322

214 186 CARLOS LUCIO MALMONGE INDEPENDIENTE 0:42:44 323

215 3072 DAVID MARTIN PAYO 0:42:45 324

216 546 GUILLERMO DIAS PEREA 0:42:46 325

217 600 ALEJANDRO AHEDO DIEZ 0:42:46 326

218 112 TIMOTHY TREGENZA 0:42:47 327

219 383 JOSE LLOPIS VALLEJO 0:42:47 328

220 703 ALBERTO AGUJETA LENTIJO 0:42:47 329

221 542 INIGO ELGUEZABAL ROUSSE 0:42:48 330

222 94 ENEKO TORRE ORTEGA 0:42:49 332

223 499 GORKA KAREAGA YAÑEZ 0:42:54 335

224 1017 JOKIN ARREGUI LOPEZ 0:43:00 338

225 295 RAUL MARCOS MENENDEZ 0:43:01 339

226 181 JAVIER MURUA ARANCIBIA 0:43:04 340

227 614 KOLDO MUNOZ RODRIGUEZ 0:43:04 341

228 808 JESUS LANDETA PADRONES 0:43:05 342

229 477 JOSE LUIS GARCIA SANCHEZ 0:43:07 344

230 913 HILARIO SOBAS LEOZ KUKURRUSTU KIROL KLUBA 0:43:08 345

231 310 ALBERTO MOYANO GARCIA 0:43:11 346

232 3038 GAIZKA ARRIZABALAGA ZUBIETA 0:43:11 347

233 667 IÑIGO GAMON TRIGO 0:43:12 348

234 505 VICTOR MENDOZA 0:43:13 349

235 24 RAFA GAMBOA DIEZ DE OTAZU 0:43:13 350

236 293 JOSU URRUTIA MADARIAGA 0:43:16 352

237 99 JAVIER MARTINEZ SALVADOR 0:43:20 355

Cronometraje Chip ‐ info@sportsolution.es www.TuResultado.es
Página 7 de 18
Clasificación
Veteranos M
Pto. Dorsal Nombre Apellidos Club Tiempo P. Gen.

238 775 FELIX JOSE ALVAREZ HERNANDEZ 0:43:21 357

239 77 JON MATURANA ORELLANA 0:43:23 359

240 524 LIANG XU SHAO 0:43:24 360

241 432 FELIPE LAMBRENTO ZAPATA 0:43:25 361

242 214 PATXI DOMINGUEZ CARO 0:43:28 362

243 441 ALONSO PATXEKO VELAZQUEZ 0:43:32 365

244 385 ALEXANDER KORTABITARTE FERRER 0:43:34 366

245 822 IGOR MORALES IPIÑA 0:43:35 367

246 3011 IKER MAGUNAZELAIA IZAGIRRE 0:43:37 369

247 3047 SANTI AGIRRE GARAIZABAL 0:43:39 371

248 942 CARLOS EIZAGUIRRE IRUJO 0:43:41 373

249 280 JON LARRABASTER VEGA 0:43:47 375

250 286 UNAI FERNANDEZ ZABALA 0:43:47 376

251 838 JAVIER IBISATE 0:43:50 377

252 399 JOSEBA ALONSO GARCIA 0:43:51 378

253 491 JOKIN BARTOLOME ALVAREZ INDEPENDIENTE 0:43:51 379

254 679 IÑAKI LASSO DE LA VEGA JAUREGUI 0:43:53 380

255 388 JOSU ELORDUY VADILLO 0:43:56 381

256 3080 ASER MARTINEZ SANCHEZ 0:43:59 382

257 354 JAVIER GONZALEZ URIBARRI 0:43:59 384

258 818 IÑIGO OTAOLA ORMAETXEA 0:44:00 387

259 753 JOSEBA ORTEGA DONOSTI 0:44:00 388

260 716 GUILLERMO AZKORRA BORES 0:44:01 389

261 709 JESUS DIGON MORENO 0:44:01 390

262 580 RAFAEL GOMEZ VIVES 0:44:01 391

263 131 ANDER HURTADO GONZALEZ 0:44:06 392

264 3092 ALFONSO ANDRES SANZ 0:44:08 393

265 935 ALIOU MBAYE ARTUNDUAGA A.T. 0:44:08 394

266 448 MIKEL  PICON GIL 0:44:10 395

267 845 MIGUEL  ROMILLO 0:44:12 396

268 906 FEDERICO MIJANGOS ANTON GETXOTRI 0:44:13 397

269 183 TXEMA ETXEBARRIA AMORRORTU 0:44:13 399

270 1038 IÑIGO RUIZ DE EGUINO 0:44:14 400

271 792 JUAN MARI GUILLERNA FERNANDEZ 0:44:15 401

Cronometraje Chip ‐ info@sportsolution.es www.TuResultado.es
Página 8 de 18
Clasificación
Veteranos M
Pto. Dorsal Nombre Apellidos Club Tiempo P. Gen.

272 180 GONZALO PEÑA FDEZ. DE GAMBOA 0:44:20 402

273 837 PEDRO LUIS IBARGÜEN PUCCINI 0:44:24 403

274 999 MIKEL ALONSO SAN ROMAN 0:44:24 404

275 824 JUAN DOMINGO MARTINEZ ANTOLINO 0:44:26 405

276 114 IGNACIO MARTINEZ SALVADOR 0:44:27 406

277 37 GONZALO PRIETO ALVAREZ 0:44:30 408

278 842 DILA SALL 0:44:35 411

279 157 MIKEL AZCARGORTA CORCOSTEGUI 0:44:36 412

280 203 PABLO GONZALEZ ALDASORO 0:44:40 416

281 552 SANTI MARTINEZ ONTORIA 0:44:41 417

282 384 FERNANDO GREGORIO MERINO 0:44:44 418

283 434 INAKI PEREZ BILBAO 0:44:45 419

284 516 JUAN ANTONIO FERNANDEZ DE LA PEÑA  INDEPENDIENTE 0:44:45 420
OLABARRI

285 71 FCO JAVIER BARCENA HINOJAL 0:44:48 422

286 62 JAVIER BARCENA HINOJAL 0:44:48 423

287 1030 MIKEL ETXEBERRIA SALUTREGI TRIRUNNERS 0:44:49 424

288 610 JOSU ERENA ETXEBARRIA 0:44:50 426

289 588 ROMAN CARRANZA JOXENECHE 0:44:50 427

290 809 ALVARO ELIAS CILLERO ASTRABUDUA TALDEA  0:44:54 430

291 405 IÑIGO JUARISTI 0:44:58 432

292 608 PABLO DANIEL MATEOS JORNA 0:45:03 433

293 3009 JAVIER HERNANDO DIEZ 0:45:03 434

294 804 EUGENIO SANCHEZ CORRALES 0:45:05 435

295 179 KOLDOBIKA LOPEZ TARANCO 0:45:06 436

296 243 JAVIER FERNANDEZ FRADUA 0:45:06 437

297 259 JON BENGOETXEA LOPEZ 0:45:07 438

298 61 INAKI GARDOKI HINOJAL 0:45:07 439

299 23 JOSE FRANCISCO FERNANDEZ BERECIARTUA 0:45:08 441

300 497 PIPE GOÑI 0:45:10 443

301 436 HARITZ CORTES PEREZ 0:45:10 444

302 351 DAVID ETXARRI ALVAREZ 0:45:12 445

303 1021 GORKA BENGOETXEA VITORIA 0:45:13 447

304 850 ASIER CAÑAS ARRAIBI 0:45:16 449

Cronometraje Chip ‐ info@sportsolution.es www.TuResultado.es
Página 9 de 18
Clasificación
Veteranos M
Pto. Dorsal Nombre Apellidos Club Tiempo P. Gen.

305 889 EDU LAKUNTZA RODRIGUEZ AMOREBIETA‐ETXANOKO TRIATLOI TALDEA 0:45:17 450

306 182 MIGUEL URIARTE BUSO 0:45:19 452

307 239 PABLO MATESANZ MEDINA 0:45:20 453

308 606 FAUSTINO JIMENEZ LERMA 0:45:26 454

309 70 JON POLO AZCORRA 0:45:26 455

310 710 EDUARDO JIMENEZ GRANDE 0:45:27 456

311 319 PETER RAWLINS 0:45:28 457

312 507 JESUS AGUDO QUIRANTE 0:45:29 458

313 3071 OSCAR IGLESIAS SANTELICES 0:45:32 459

314 60 JESUS BARANDIARAN LEGORBURU 0:45:38 463

315 332 EDUARDO URRACA ALTUZARRA 0:45:42 465

316 69 FERTXU HIDROQUILIS PALACIOS 0:45:44 466

317 53 JON ANDONI INIGUEZ MENTXAKA 0:45:45 467

318 51 JOSE MENDIETA ZABALA 0:45:46 468

319 233 CARLOS CADARSO FERNANDEZ 0:45:47 469

320 428 JAVIER GUIMON BARDESI 0:45:51 471

321 3023 ROBERTO ALVARO ALEJOS 0:45:55 473

322 564 JOSE IGNACIO ESCANCIANO OYARZABAL 0:45:55 474

323 3056 GORKA IZA MIGUEL 0:45:55 476

324 1064 IÑAKI MENTXAKA MADARIAGA 0:45:57 478

325 881 IÑAKI OROSA BUSTURIKO ATLETISMO TALDEA 0:46:00 480

326 447 JOSE ANTONIO LARRAZABAL UGARTE 0:46:01 481

327 523 VALENTIN VARELA GARCIA 0:46:04 483

328 261 IBON AGIRREGOITIA BURUAGA MUNGIA TRIATLOI TALDEA 0:46:06 485

329 917 EDUARDO HERNANDEZ LOPEZ 0:46:07 486

330 772 VALENTIN LOZOYA MARTIN 0:46:14 490

331 830 AITOR CALLEJA URRUELA 0:46:14 491

332 3053 LUIS EZCURRA LOPEZ DE LA GARMA 0:46:15 493

333 698 IÑAKI IRIGOYEN ZULAICA 0:46:21 496

334 103 J. ALBERTO RODRIGO DELGADO 0:46:22 497

335 863 ANDONI ARTECHE ACEDO MUNGIA ST 0:46:23 498

336 689 DAVID CHARTE HIRUKO TRIATLOI TALDEA 0:46:25 500

337 271 JAVIER GOMEZ GARCIA HIRUKO TRIALOI TALDEA 0:46:25 501

338 683 ROBERTO MEDINA OFRETORIO HIRUKO TRIATLOI TALDEA 0:46:25 502

Cronometraje Chip ‐ info@sportsolution.es www.TuResultado.es
Página 10 de 18
Clasificación
Veteranos M
Pto. Dorsal Nombre Apellidos Club Tiempo P. Gen.

339 682 IGOR BENITO RIVERA HIRUKO TRIATLOI TALDEA 0:46:25 503

340 661 IÑAKI GARCIA URIARTE 0:46:28 504

341 46 JUAN AMANN MENDIETA 0:46:29 505

342 368 IBON RIPOLL ARANA 0:46:30 506

343 572 JOSE MONTERO ZORRILLA 0:46:32 508

344 1050 IÑAKI ALONSO VILLACORTA 0:46:32 509

345 583 ROBERTO GONZALEZ BLAZQUEZ 0:46:33 510

346 563 ALFONSO OZALLA RODRIGUEZ 0:46:34 511

347 172 JESUS YECORA CONDE LABEGANE 0:46:38 514

348 481 JUAN ANTONIO GONZALEZ FIEL   0:46:40 516

349 473 BORJA SIERRA 0:46:41 518

350 686 JUAN CRESPO PRIEGUE 0:46:45 520

351 620 IVAN MARTIN CALVO 0:46:47 522

352 456 DAVID MORA 0:46:49 525

353 911 PEDRO MIJANGOS ANTON 0:46:50 526

354 826 IKER ALBIZUA URIONDO 0:46:57 528

355 3013 GABRIEL MARTINEZ MARTINEZ 0:46:57 529

356 575 LORENZO ALARCIA RIOJA 0:46:59 530

357 3025 FCO. JAVIER DELGADO DIEZ 0:47:03 533

358 3026 JOSEBA ANIBAL DIAZ GARCIA 0:47:04 534

359 543 RAMON ELGUEZABAL ROUSSE 0:47:06 536

360 517 F.GABRIEL PLAZA 0:47:10 540

361 270 ANDONI CASTAÑEDA DEL MORAL 0:47:10 541

362 440 ALFONSO ARROLA 0:47:14 542

363 380 IGOR GOIRIGOLZARRI ELORDUY 0:47:15 543

364 76 JORGE RIJAS ORMAZA 0:47:25 545

365 78 SERGIO LOIRA FERNANDEZ 0:47:26 547

366 545 CESAR URROZ GUZMAN 0:47:26 548

367 480 ELEDER LIBANO BLANCO 0:47:27 550

368 3027 OSCAR GARCIA COLLADO 0:47:27 551

369 329 IMANOL FERNANDEZ MAGUREGUI 0:47:29 552

370 176 IÑAKI OZAMIZ URIARTE 0:47:30 554

371 1040 IKER ORTEGA ARTZINIEGA 0:47:32 556

372 93 RICARDO PASCH ALONSO 0:47:33 558

Cronometraje Chip ‐ info@sportsolution.es www.TuResultado.es
Página 11 de 18
Clasificación
Veteranos M
Pto. Dorsal Nombre Apellidos Club Tiempo P. Gen.

373 25 JAVIER SANTAMERA LOPEZ 0:47:39 560

374 722 JOSE LUIS BOO LOPEZ 0:47:42 562

375 757 ANTONIO VICENTE MORAN 0:47:44 563

376 188 JAVI RUIZ MERINO 0:47:44 564

377 825 JAVI MARTINEZ ANTOLINO 0:47:45 565

378 419 JUAN LAGUNA DEL ALAMO 0:47:45 566

379 416 NESTOR FERNANDEZ SAINZ‐MAZA 0:47:45 568

380 123 JAIME AGIRRE ARDANAZ 0:47:45 570

381 417 RICAR COSTOYA CURROS 0:47:46 571

382 135 RICARDO CARRERA 0:47:47 577

383 396 JULIO GOMEZ MARTINEZ 0:47:50 582

384 366 GALDER LARRAZABAL GUTIERREZ 0:47:53 583

385 995 ALBERTO ANTA ESCUREDO PONTEAM 0:47:54 585

386 68 JOSE LUIS SANCHEZ RODRIGUEZ 0:47:54 586

387 262 JOSE MIGUEL MIGUEL GONZALEZ 0:47:54 587

388 779 ASIER FERNANDEZ AHEDO 0:47:55 588

389 670 JUAN CARLOS DEL ALAMO 0:47:57 591

390 1065 LANDER LABAJO LARAUDOGOITIA 0:48:02 593

391 676 ASIER BILBAO AYO MUNAY KIROL TALDEA 0:48:03 595

392 527 AITOR LOPEZ BILBAO 0:48:06 597

393 945 EUGENIO BEITIA ZAMALLOA 0:48:16 600

394 450 MIKEL MUÑOYERRO ARROYO 0:48:16 601

395 3090 PATXI MARTINEZ GUZMAN 0:48:17 602

396 33 LUIS ARIAS MARIN 0:48:21 604

397 671 EDUARDO ZUÑIGA VILLANUEVA 0:48:21 605

398 611 IBON TOLEDANO ETXEBARRIA 0:48:26 607

399 82 JOSEBA UNIBASO CALVAR 0:48:32 609

400 418 IMANOL DIAZ BENGOETXEA 0:48:33 610

401 876 JOSEBA LLANOS ZINTZOAK 0:48:35 611

402 652 HUMBERTO MARRO GONZALEZ BALMASEDA MENDI TALDEA 0:48:35 612

403 483 AITOR LARRINAGA GARCIA 0:48:36 614

404 592 JUAN PORTILLA ROMERO 0:48:39 615

405 300 RUBEN MARTINEZ GONZALEZ 0:48:40 618

406 884 FCO.JAVIER ONTOSO DIAZ ARTUNDUAGA A.T, 0:48:40 620

Cronometraje Chip ‐ info@sportsolution.es www.TuResultado.es
Página 12 de 18
Clasificación
Veteranos M
Pto. Dorsal Nombre Apellidos Club Tiempo P. Gen.

407 595 LUIS MARIA RABANOS ESCUDERO 0:48:40 621

408 805 ALBERTO CAMACHO FERNANDEZ ARTUNDUAGA 0:48:40 623

409 467 JULEN GARCIA GARCIA ARTUNDUAGA A. T. 0:48:40 625

410 290 JOSU GURTUBAY ZAMORA TEAM ONE 0:48:41 626

411 596 INAKI LEJARRETA SOPRANOIZ 0:48:42 627

412 959 JORGE URIARTE ARETXAGA 0:48:43 628

413 199 ALEX BOUZA ALBERDI 0:48:44 629

414 573 JOSE LUIS AYO ESNAOLA 0:48:47 632

415 208 ALETXU ECHEVARRIA 0:48:47 633

416 848 ANDER ARANZADI ORMAETXEA 0:48:47 634

417 449 GUILLERMO BEASKOETXEA GANGOITI 0:48:48 635

418 554 JORGE FUENTES SOUTO 0:48:49 636

419 14 IBON ULACIA ARAGUES 0:48:49 637

420 308 SERGIO MARTINEZ SANCHEZ 0:48:58 642

421 750 ARGIMIRO JOSE CALVO ESPANA 0:48:58 643

422 550 SUBINAS 0:48:58 644

423 355 JUAN ANTONIO EIZAGUIRRE IRUJO 0:48:59 645

424 747 JAIME BERISTAIN EGUIA 0:49:00 646

425 871 JUAN PABLO DOMINGUEZ RUEDA 0:49:04 648

426 847 HERACLIO VARONA  0:49:11 650

427 841 HAMIDOE NEGUE  0:49:11 651

428 167 JOSE ANTONIO HERMOSO LIMA 0:49:12 652

429 468 ALBERTO GONZALEZ 0:49:12 654

430 151 ASIER ZUBERO 0:49:13 656

431 194 IBON ARROITAJAUREGI 0:49:16 660

432 381 ALEJANDRO LOBATO SANTOS 0:49:17 661

433 566 JOSE LUIS VALLE REYES 0:49:20 665

434 3094 GONZALO ATECA ACEBO 0:49:21 666

435 479 BORJA NUÑEZ RAMOS 0:49:23 667

436 421 VICTOR GOITIA ALEGRIA 0:49:26 668

437 420 GERMAN QUIJANO URQUIJO 0:49:27 669

438 446 JON PEREZ NUB 0:49:29 670

439 344 MARCO DIEZ FRIAS 0:49:32 671

440 963 RAFAEL PEÑAS GARCIA 0:49:36 672

Cronometraje Chip ‐ info@sportsolution.es www.TuResultado.es
Página 13 de 18
Clasificación
Veteranos M
Pto. Dorsal Nombre Apellidos Club Tiempo P. Gen.

441 363 AITOR GAZTELUA ARRIBAS 0:49:39 673

442 565 JUAN CARLOS MENDIETA SAN CRISTOBAL 0:49:39 674

443 360 CARLOS DIEZ GONZALEZ 0:49:44 675

444 501 GUILLERMO FERNANDEZ‐CAVADA MATEOS 0:49:46 677

445 498 JOSE ARANGUREN FERNANDEZ ATLETICO LAREDO 0:49:46 678

446 555 LUIS MANUEL GUTIERREZ RUIZ 0:49:47 679

447 406 JOSE MANUEL HERRERO ALCALDE 0:49:50 681

448 163 GREGORIO SANCHEZ ORCAJO 0:49:53 684

449 788 JUAN MARI MARINA ZARATE 0:49:59 685

450 389 INIGO OLIVARES LLONA 0:49:59 686

451 920 JOSE LUIS HORMAECHEA PASCUAL 0:49:59 687

452 3031 ALFONSO MARTINEZ VICENTE 0:50:05 688

453 102 ANDRES GONZALEZ HERMOSA 0:50:10 691

454 238 GREGORIO MATESANZ CANAS 0:50:10 692

455 892 ANDER MARQUET 0:50:10 693

456 101 JESUS PEREZ RUIZ 0:50:10 694

457 587 EDUARDO ARANGUREN AZCARATE 0:50:11 697

458 431 INAKI NUNEZ 0:50:12 698

459 858 ABELARDO FERNANDEZ ARZA ATLETISMO LAUDIO 0:50:14 699

460 357 MIKEL  GONI ZONZARREN 0:50:15 700

461 617 JAIME EIZAGUIRRE IRUJO 0:50:15 701

462 356 ELEDER BARANANO MENTXAKA 0:50:16 703

463 326 AITOR LIBANO AGUIRRE 0:50:16 704

464 932 EGOITZ MUÑOZ ROJAS 0:50:22 705

465 55 PEDRO LUIS AGUIRRE TORRES 0:50:22 706

466 325 JUAN LEKUBE INSAUSTI 0:50:25 707

467 690 GORKA AGIRRE UNZURRUNZAGA 0:50:26 708

468 54 JON LANDETA BOMBIN 0:50:34 714

469 212 JESUS ALONSO BARANDA 0:50:35 715

470 63 MIKEL  HERNANDEZ JUAN 0:50:37 716

471 687 MARCOS FERNANDEZ SORDO INDEPENDIENTE 0:50:40 718

472 328 FERNANDO GAGO GOMEZ 0:50:41 722

473 1005 ALBERTO TASCON TRIRUNNERS RUNNING CLUB 0:50:49 728

474 209 CARLOS GONZALEZ MARINA 0:50:50 730

Cronometraje Chip ‐ info@sportsolution.es www.TuResultado.es
Página 14 de 18
Clasificación
Veteranos M
Pto. Dorsal Nombre Apellidos Club Tiempo P. Gen.

475 95 JOSE IGNACIO FERNANDEZ PARGA 0:50:52 731

476 758 SEGIS RIESGO MARTINEZ 0:50:54 732

477 908 VLADIMIRO PEÑAFIEL GARCIA 0:51:01 734

478 299 JON HIDALGO TALAVERA 0:51:03 736

479 318 GONZALO RUIZ AIZPURU 0:51:12 744

480 853 JOSE RAMON CUBILLO ROMERO 0:51:16 745

481 15 MIKEL  ULACIA ARAGUES 0:51:22 746

482 153 ARITZA VILLANUEVA ALCOCER 0:51:24 748

483 763 JUAN JOSE GARCIA ALONSO 0:51:25 750

484 852 GARIKOITZ ERAUZKIN LOPZ BOSTIBAIETA 0:51:26 751

485 851 JUAN GALINDEZ CABALLERO 0:51:26 752

486 626 RAFAEL ILARDIA LORENTZEN 0:51:32 754

487 88 JESUS IRAZABAL OLAETA 0:51:34 755

488 369 ASIER PEREZ PEREZ 0:51:35 758

489 3106 JOSE MARI PEREZ GUTIERREZ 0:51:36 759

490 1028 DANEL KORTAZAR ZABALA 0:51:38 760

491 791 XABIER ARETXABALETA LAHUERTA 0:51:39 761

492 1010 FRANCISCO JOSE COBO MARTINEZ CAMPING ATLETICO LAREDO 0:51:39 762

493 303 LUIS IGNACIO VILLALANTE TRUEBA NO CLUB 0:51:46 764

494 994 PEDRO ANGEL SALGADO DE LA ASUNCION PONTEAM 0:51:46 766

495 58 ALFREDO AMEZKUA GONZALEZ 0:51:47 769

496 228 JESUS MARIA MANZANOS HERRERO 0:51:47 770

497 35 TOMAS BOCOS ALONSO 0:51:48 773

498 488 IKER FEBRER VEGUERIA ‐ 0:51:54 774

499 941 JAVIER GOMEZ DIAZ 0:51:54 775

500 856 OIER AURREKOETXEA 0:52:00 779

501 924 XABIER AURREKOETXEA BASAÑEZ 0:52:00 780

502 44 JOAKIN POMPOSO GALBARRIARTU 0:52:01 781

503 276 UNAI KAMIRUAGA ETXEBARRIA 0:52:01 782

504 828 LUISMA DIEZ LOPEZ 0:52:05 784

505 87 EDUARDO GOMEZ LINARES 0:52:07 785

506 190 DAVID NIETO REGIDOR 0:52:09 786

507 189 ERNESTO SANTO TOMAS MARTINEZ 0:52:10 787

508 338 ALAIN MARTIN MOLINA 0:52:27 796

Cronometraje Chip ‐ info@sportsolution.es www.TuResultado.es
Página 15 de 18
Clasificación
Veteranos M
Pto. Dorsal Nombre Apellidos Club Tiempo P. Gen.

509 393 JORGE DELGADO ESTEBAN 0:52:27 797

510 645 JOSE ARRIETA MESA 0:52:27 798

511 52 MIKEL  BEGONA GARAIZAR 0:52:28 799

512 1029 IMANOL GOIENAGA PETRALANDA 0:52:38 800

513 309 PEDRO JOSE BALDA GONZALEZ 0:52:46 803

514 147 PABLO PEREZ PEREZ TRIRUNNERS GETXO 0:52:48 806

515 115 JESUS MARIA PLATON CABELLO 0:52:52 808

516 647 JAVIER ARRILLAGA GARATE 0:52:54 812

517 1068 JOSETXU ANACABE SAINZ DE SAN PEDRO 0:53:02 816

518 521 ANGEL LIGARTEL ORTUDETXEA 0:53:05 818

519 13 ANTON ARNAL LUENGAS 0:53:09 820

520 65 JOSERRA DIEZ MARTINEZ 0:53:15 822

521 3095 IKER BOCOS RODRIGUEZ 0:53:18 823

522 741 JOSE ANGEL VIDAL CASTELLANOS 0:53:26 829

523 407 IÑAKI HIDALGO ARCE 0:53:27 830

524 493 ROBERTO MARTIN VILLARES 0:53:29 831

525 229 AITOR AMORRORTU HUELGO 0:53:36 832

526 443 ASIER ONAINDIA MARTINEZ 0:53:41 834

527 1008 UNAI URIBEETXEBARRIA AIERRA 0:53:45 835

528 637 RAUL ARRIETA BRONARO 0:53:49 836

529 192 PEDRO ESTEBAN BUTRON 0:53:53 838

530 888 MIKEL FERNANDEZ 0:54:00 840

531 630 JOSE ANTONIO FERNANDEZ GARCIA 0:54:01 842

532 549 RICARDO BATICON TAPIA 0:54:03 843

533 100 CARLOS MENTXAKA ARANA 0:54:09 845

534 1012 TOBIAS BALD 0:54:13 847

535 370 ASIER BASURCO PEREZ 0:54:35 851

536 395 FELIX GONZALO MOZO 0:54:37 852

537 613 GERARDO ROQUER LARRABE 0:54:43 857

538 893 JOSE PAZOS 0:54:46 859

539 537 EDUARDO MARTINEZ RUBIO 0:54:47 860

540 731 CARLOS ROA CARRASCO 0:54:48 861

541 29 JESUS MOSTEIRO RICO 0:54:48 862

542 30 NIKOLA AMEZAGA OTAOLA 0:54:48 863

Cronometraje Chip ‐ info@sportsolution.es www.TuResultado.es
Página 16 de 18
Clasificación
Veteranos M
Pto. Dorsal Nombre Apellidos Club Tiempo P. Gen.

543 938 RUBEN MACIAS CILLERO 0:54:55 864

544 391 ALBERTO PERTA MARTIN 0:54:57 865

545 712 JOSE LUIS LEJONAGOITIA ZABALA 0:55:11 870

546 317 PEDRO DOCANDO LENGRENDE 0:55:23 883

547 445 INAKI FEIJOA IGLESIAS 0:55:30 885

548 795 IGNACIO ABAITUA FERNANDEZ 0:55:32 886

549 28 GAIZKA DE LOS BUEIS SANTAMARIA 0:55:41 892

550 927 JOSE ANTONIO GONZALEZ FRAILE 0:55:43 895

551 770 JUAN ANTONIO BORDALLO DELGADO 0:55:44 898

552 19 UNAI TAMAYO INURRIGARRO 0:56:02 904

553 728 PATRICK JORDA SIMON 0:56:04 905

554 120 JUAN MARIA CORTIJO TRINIDAD 0:56:06 907

555 260 JOSE ALBERTO MARTINEZ PARLA CLUB ATLETISMO ALMORADIEL 0:56:06 909

556 85 JOSE TRIVINO BARROS 0:56:29 911

557 64 GOTZON SANTOS SALCEDO 0:56:29 912

558 110 JUANJO ZUBELDIA MARCO 0:56:45 914

559 398 JOSE LUIS PEREZ DEL RIO 0:56:52 916

560 376 JORGE CARBAJO JIMENEZ 0:56:55 919

561 155 ALEJANDRO URIBE ZARRABEITIA 0:56:56 922

562 234 ANTONIO DIEZ BORNAL 0:57:15 924

563 227 NACHO DIEZ REY 0:57:16 925

564 364 ASIER MENDIZABAL ABAD 0:57:19 927

565 197 DANEL MADARIAGA ZUBIMENDI 0:57:19 928

566 168 DANIEL MASEDA PENA 0:57:32 931

567 20 RODRIGO AGUINAGA CHURRUCA 0:58:00 937

568 702 GERBASIO PEREDA RIGUERA 0:58:06 938

569 693 JAVIER ARTECHE PIÑAR BEER RUNNERS BILBAO 0:58:15 942

570 111 GERARDO PRESA BIDAGUREN 0:58:19 946

571 34 IKER SAEZ DE EGUILAZ 0:58:20 947

572 223 UNAI ZUBIAUR CABANAS 0:58:20 948

573 358 PEDRO ENCISO GRIJELMO 0:58:20 949

574 777 FERNANDO GONZALO DELGADO 0:58:23 953

575 313 AITOR EXPELETA BILBAO 0:58:42 957

576 839 ILLIE BUZESCU 0:58:42 958

Cronometraje Chip ‐ info@sportsolution.es www.TuResultado.es
Página 17 de 18
Clasificación
Veteranos M
Pto. Dorsal Nombre Apellidos Club Tiempo P. Gen.

577 846 MIGUEL YUSTE AYARZAGUENA 0:58:46 960

578 803 FERNANDO GONZALEZ 0:59:06 967

579 707 PEDRO CELAYA MENDIZABAL 0:59:43 969

580 706 GUILLERMO ALONSO BORAITA 0:59:44 970

581 382 GORKA GONZALEZ ORCASITAS 1:00:18 974

582 413 EDUARDO LAGUNA DEL ALAMO 1:00:19 975

583 415 DORKAITZ SAN MILLAN INCHAUSTI 1:00:20 976

584 322 MIKEL  ARRIETA AGUIRRE 1:01:32 980

585 3146 DOMINGO FERNANDEZ 1:02:13 986

586 489 JORGE LAUSTALET SANTOS 1:02:14 988

587 161 IVAN GOMEZ LOSADA 1:02:32 991

588 540 JOSEBA JAUREGIZAR BILBAO 1:04:06 995

589 453 IGNACIO ESCUDERO SEEBOLD 1:05:20 998

590 631 FORTUNATO VENCEDOR HERNANDEZ 1:26:45 1004

Cronometraje Chip ‐ info@sportsolution.es www.TuResultado.es
Página 18 de 18

Related Interests